Medford, WI

11:56 AM CDT on August 18, 2017 (GMT -0500)
Taylor County

Weather History for KMDZ - March, 2014

Change the Weather History Date:

Tuesday, March 25, 2014

  Actual Average Record
Temperature  
Mean Temperature 11 °F -  
Max Temperature 17 °F 40 °F 75 °F (2007)
Min Temperature 5 °F 20 °F -8 °F (1971)
Degree Days  
Heating Degree Days 54    
Moisture  
Dew Point -1 °F    
Average Humidity 58    
Maximum Humidity 72    
Minimum Humidity 47    
Precipitation  
Precipitation 0.00 in - - ()
Sea Level Pressure  
Sea Level Pressure 30.05 in    
Wind  
Wind Speed 11 mph (WNW)    
Max Wind Speed 17 mph    
Max Gust Speed 26 mph    
Visibility 10 miles    
Events      
Averages and records for this station are not official NWS values.
T = Trace of Precipitation, MM = Missing Value Source: NWS Daily Summary

Daily Weather History Graph

Daily Weather History Graph

Search for Another Location

Airport or City:

Trip Planner

Search our weather history database for the weather conditions in past years. The results will help you decide how hot, cold, wet, or windy it might be!

Date:

Astronomy

Mar. 25, 2014 Rise Set
Actual Time 6:54 AM CDT 7:20 PM CDT
Civil Twilight 6:25 AM CDT 7:49 PM CDT
Nautical Twilight 5:50 AM CDT 8:24 PM CDT
Astronomical Twilight 5:14 AM CDT 9:00 PM CDT
Moon 3:30 AM CDT (3/25) 1:38 PM CDT (3/25)
Length of Visible Light 13h 24m
Length of Day
12h 25m
Waning Crescent, 32% of the Moon is Illuminated
Mar 25
Waning Crescent
Mar 30
New
Apr 7
First Quarter
Apr 15
Full
Apr 22
Last Quarter

Hourly Weather History & Observations

Time (CDT) Temp. Windchill Dew Point Humidity Pressure Visibility Wind Dir Wind Speed Gust Speed Precip Events Conditions
12:15 AM 15.8 °F 5.1 °F 7.3 °F 69% 29.96 in 10.0 mi West 8.1 mph - N/A   Scattered Clouds
12:35 AM 15.8 °F 4.2 °F 6.3 °F 66% 29.96 in 10.0 mi West 9.2 mph - N/A   Scattered Clouds
12:55 AM 15.1 °F 5.2 °F 5.5 °F 66% 29.95 in 10.0 mi WNW 6.9 mph - N/A   Clear
1:15 AM 14.7 °F 3.8 °F 5.0 °F 65% 29.95 in 10.0 mi WNW 8.1 mph - N/A   Clear
1:35 AM 14.4 °F 5.5 °F 4.5 °F 65% 29.95 in 10.0 mi WNW 5.8 mph - N/A   Scattered Clouds
1:55 AM 13.8 °F 3.7 °F 3.7 °F 64% 29.95 in 10.0 mi WNW 6.9 mph - N/A   Scattered Clouds
2:15 AM 13.3 °F 0.3 °F 3.4 °F 65% 29.96 in 10.0 mi WNW 10.4 mph - N/A   Scattered Clouds
2:35 AM 13.1 °F 0.1 °F 3.0 °F 64% 29.96 in 10.0 mi WNW 10.4 mph - N/A   Clear
2:55 AM 13.1 °F 0.1 °F 2.7 °F 63% 29.96 in 10.0 mi NW 10.4 mph 16.1 mph N/A   Clear
3:15 AM 12.2 °F -0.2 °F 2.1 °F 64% 29.96 in 10.0 mi WNW 9.2 mph - N/A   Clear
3:35 AM 11.5 °F -0.2 °F 1.9 °F 66% 29.96 in 10.0 mi WNW 8.1 mph - N/A   Clear
3:55 AM 11.1 °F -1.6 °F 1.6 °F 66% 29.97 in 10.0 mi NW 9.2 mph - N/A   Scattered Clouds
4:15 AM 10.4 °F -4.1 °F 2.3 °F 70% 29.97 in 10.0 mi NW 11.5 mph 18.4 mph N/A   Scattered Clouds
4:35 AM 10.9 °F -1.8 °F 3.4 °F 72% 29.98 in 10.0 mi NNW 9.2 mph - N/A   Overcast
4:55 AM 10.9 °F -3.4 °F 3.6 °F 72% 29.98 in 10.0 mi NW 11.5 mph - N/A   Overcast
5:15 AM 9.9 °F -4.7 °F 0.9 °F 67% 29.99 in 10.0 mi NW 11.5 mph - N/A   Overcast
5:35 AM 9.1 °F -8.2 °F -0.0 °F 66% 29.99 in 10.0 mi NW 16.1 mph 21.9 mph N/A   Mostly Cloudy
5:55 AM 7.9 °F -9.9 °F -1.7 °F 65% 30.00 in 10.0 mi NNW 16.1 mph 19.6 mph N/A   Scattered Clouds
6:15 AM 7.0 °F -8.3 °F -2.2 °F 66% 30.01 in 10.0 mi NW 11.5 mph 16.1 mph N/A   Clear
6:35 AM 6.4 °F -9.8 °F -2.4 °F 67% 30.02 in 10.0 mi NW 12.7 mph - N/A   Clear
6:55 AM 6.3 °F -9.2 °F -3.3 °F 65% 30.03 in 10.0 mi NW 11.5 mph 19.6 mph N/A   Clear
7:15 AM 5.5 °F -11.6 °F -4.0 °F 65% 30.05 in 10.0 mi NW 13.8 mph - N/A   Clear
7:35 AM 5.5 °F -11.6 °F -4.4 °F 64% 30.05 in 10.0 mi NW 13.8 mph 20.7 mph N/A   Clear
7:55 AM 5.5 °F -10.9 °F -4.4 °F 64% 30.06 in 10.0 mi NW 12.7 mph 17.3 mph N/A   Clear
8:15 AM 5.7 °F -12.6 °F -5.1 °F 61% 30.06 in 10.0 mi NW 16.1 mph - N/A   Clear
8:35 AM 5.7 °F -12.6 °F -5.3 °F 61% 30.07 in 10.0 mi NW 16.1 mph 21.9 mph N/A   Clear
8:55 AM 6.3 °F -10.0 °F -5.1 °F 60% 30.08 in 10.0 mi NW 12.7 mph 20.7 mph N/A   Clear
9:15 AM 6.4 °F -11.1 °F -4.9 °F 60% 30.08 in 10.0 mi NW 15.0 mph 21.9 mph N/A   Clear
9:35 AM 6.8 °F -10.7 °F -4.9 °F 59% 30.08 in 10.0 mi NW 15.0 mph - N/A   Scattered Clouds
9:55 AM 7.7 °F -9.5 °F -4.9 °F 56% 30.09 in 10.0 mi NNW 15.0 mph - N/A   Scattered Clouds
10:15 AM 8.6 °F -7.7 °F -4.0 °F 57% 30.10 in 10.0 mi NW 13.8 mph 18.4 mph N/A   Scattered Clouds
10:35 AM 9.1 °F -7.0 °F -4.4 °F 54% 30.09 in 10.0 mi NW 13.8 mph 17.3 mph N/A   Scattered Clouds
10:55 AM 9.9 °F -6.1 °F -3.6 °F 54% 30.09 in 10.0 mi WNW 13.8 mph 18.4 mph N/A   Clear
11:15 AM 10.4 °F -6.6 °F -3.5 °F 54% 30.09 in 10.0 mi West 16.1 mph 19.6 mph N/A   Scattered Clouds
11:35 AM 11.1 °F -3.2 °F -2.4 °F 55% 30.10 in 10.0 mi WNW 11.5 mph 19.6 mph N/A   Clear
11:55 AM 11.8 °F -2.3 °F -2.4 °F 53% 30.10 in 10.0 mi WNW 11.5 mph 19.6 mph N/A   Clear
12:15 PM 12.2 °F -3.1 °F -2.9 °F 51% 30.10 in 10.0 mi WNW 13.8 mph 21.9 mph N/A   Scattered Clouds
12:35 PM 12.7 °F -1.1 °F -2.0 °F 52% 30.10 in 10.0 mi WNW 11.5 mph 19.6 mph N/A   Clear
12:55 PM 12.9 °F -1.6 °F -2.2 °F 51% 30.10 in 10.0 mi WNW 12.7 mph 20.7 mph N/A   Scattered Clouds
1:15 PM 14.0 °F 0.5 °F -1.8 °F 49% 30.09 in 10.0 mi WNW 11.5 mph 17.3 mph N/A   Clear
1:35 PM 14.2 °F -0.6 °F -2.2 °F 48% 30.09 in 10.0 mi WNW 13.8 mph 18.4 mph N/A   Scattered Clouds
1:55 PM 14.5 °F -0.7 °F -1.7 °F 49% 30.08 in 10.0 mi West 15.0 mph 19.6 mph N/A   Scattered Clouds
2:15 PM 15.4 °F 1.0 °F -1.3 °F 48% 30.08 in 10.0 mi West 13.8 mph 21.9 mph N/A   Scattered Clouds
2:35 PM 15.4 °F 0.4 °F -1.3 °F 48% 30.08 in 10.0 mi West 15.0 mph 23.0 mph N/A   Scattered Clouds
2:55 PM 15.3 °F 1.4 °F -0.9 °F 49% 30.08 in 10.0 mi NW 12.7 mph 18.4 mph N/A   Mostly Cloudy
3:15 PM 16.2 °F 1.3 °F -0.8 °F 47% 30.08 in 10.0 mi WNW 15.0 mph 24.2 mph N/A   Mostly Cloudy
3:35 PM 16.3 °F 2.7 °F -0.9 °F 47% 30.08 in 10.0 mi WNW 12.7 mph 21.9 mph N/A   Mostly Cloudy
3:55 PM 17.2 °F 3.3 °F -0.0 °F 47% 30.07 in 10.0 mi West 13.8 mph 18.4 mph N/A   Mostly Cloudy
4:15 PM 16.3 °F 3.4 °F -0.6 °F 47% 30.07 in 10.0 mi WNW 11.5 mph 24.2 mph N/A   Mostly Cloudy
4:35 PM 16.2 °F 0.8 °F -0.6 °F 48% 30.08 in 10.0 mi West 16.1 mph 21.9 mph N/A   Overcast
4:55 PM 16.0 °F 1.1 °F -0.6 °F 48% 30.08 in 10.0 mi WNW 15.0 mph 26.5 mph N/A   Mostly Cloudy
5:15 PM 15.8 °F 1.4 °F -0.8 °F 48% 30.08 in 10.0 mi WNW 13.8 mph 18.4 mph N/A   Scattered Clouds
5:35 PM 16.0 °F 0.1 °F 0.1 °F 50% 30.09 in 10.0 mi West 17.3 mph 20.7 mph N/A   Mostly Cloudy
5:55 PM 15.6 °F 0.6 °F 0.9 °F 52% 30.09 in 10.0 mi West 15.0 mph 23.0 mph N/A   Mostly Cloudy
6:15 PM 15.6 °F 1.2 °F 0.7 °F 52% 30.09 in 10.0 mi West 13.8 mph 24.2 mph N/A   Mostly Cloudy
6:35 PM 14.9 °F 0.3 °F 0.5 °F 53% 30.09 in 10.0 mi West 13.8 mph - N/A   Mostly Cloudy
6:55 PM 14.7 °F 2.9 °F 0.3 °F 53% 30.09 in 10.0 mi West 9.2 mph - N/A   Scattered Clouds
7:15 PM 14.0 °F 1.2 °F 0.5 °F 55% 30.09 in 10.0 mi West 10.4 mph 18.4 mph N/A   Scattered Clouds
7:35 PM 13.8 °F 1.8 °F 0.1 °F 55% 30.10 in 10.0 mi West 9.2 mph 17.3 mph N/A   Scattered Clouds
7:55 PM 13.1 °F 4.0 °F -0.2 °F 55% 30.09 in 10.0 mi West 5.8 mph - N/A   Clear
8:15 PM 12.9 °F 2.6 °F -0.6 °F 55% 30.10 in 10.0 mi West 6.9 mph - N/A   Scattered Clouds
8:35 PM 12.4 °F 4.6 °F -1.1 °F 55% 30.10 in 10.0 mi WSW 4.6 mph - N/A   Clear
8:55 PM 12.0 °F 2.7 °F -0.4 °F 58% 30.10 in 10.0 mi West 5.8 mph - N/A   Clear
9:15 PM 12.2 °F 2.9 °F 0.1 °F 59% 30.10 in 10.0 mi WSW 5.8 mph - N/A   Clear
9:35 PM 11.3 °F 0.7 °F -0.0 °F 60% 30.10 in 10.0 mi West 6.9 mph - N/A   Clear
9:55 PM 11.3 °F 1.9 °F -0.0 °F 60% 30.10 in 10.0 mi WSW 5.8 mph - N/A   Scattered Clouds
10:15 PM 10.8 °F 0.0 °F -0.0 °F 62% 30.10 in 10.0 mi West 6.9 mph - N/A   Scattered Clouds
10:35 PM 10.8 °F 1.2 °F -0.2 °F 61% 30.10 in 10.0 mi WSW 5.8 mph - N/A   Clear
10:55 PM 9.9 °F 1.6 °F -0.6 °F 63% 30.11 in 10.0 mi WSW 4.6 mph - N/A   Clear
11:15 PM 9.5 °F 1.2 °F -0.8 °F 63% 30.11 in 10.0 mi WSW 4.6 mph - N/A   Scattered Clouds
11:35 PM 9.5 °F -0.3 °F -0.6 °F 64% 30.10 in 10.0 mi WSW 5.8 mph - N/A   Scattered Clouds
11:55 PM 9.1 °F 2.6 °F -0.9 °F 64% 30.10 in 10.0 mi SW 3.5 mph - N/A   Clear